Regional Weather Roundup
Issued by NWS

Home | Current Version | Previous Version | Graphics & Text | Print | Product List | Glossary On
Versions: 1 2 3 4 5 6 7 8 9 10 11 12 13 14 15 16 17 18 19 20 21 22 23 24 25 26 27 28 29 30 31 32 33 34 35 36 37 38 39 40 41 42 43 44 45 46 47 48 49 50
000
ASUS43 KOAX 052310
RWRNE

WEATHER ROUNDUP FOR NEBRASKA
NATIONAL WEATHER SERVICE OMAHA NE
500 PM CST FRI FEB 05 2016

NOTES: SATELLITE DATA IS BEING USED TO AUGMENT CLOUD COVER ABOVE
       12000 FEET.
       "FAIR" INDICATES FEW OR NO CLOUDS BELOW 12,000 FEET WITH NO
       SIGNIFICANT WEATHER AND/OR OBSTRUCTIONS TO VISIBILITY.

  * THESE STATIONS DO NOT REPORT WEATHER SUCH AS RAIN...SNOW OR FOG.

NEZ001>004-019>022-054>056-060000-
NEBRASKA PANHANDLE

CITY           SKY/WX    TMP DP  RH WIND       PRES   REMARKS
SCOTTSBLUFF    SUNNY     32  19  58 W10       30.27R WCI  24
ALLIANCE       SUNNY     32  22  66 NW17      30.22S WCI  21
CHADRON        SUNNY     36  24  62 W17       30.23S WCI  26
KIMBALL        SUNNY     30  18  61 NW16      30.25S WCI  18
SIDNEY         SUNNY     29  19  66 NW16      30.25S WCI  17
$$

NEZ057>060-069>072-079>082-060000-
SOUTHWEST NEBRASKA

CITY           SKY/WX    TMP DP  RH WIND       PRES   REMARKS
NORTH PLATTE   PTCLDY    37  24  59 NW15      30.23R WCI  28
IMPERIAL       SUNNY     35  22  58 NW15      30.25R WCI  25
LEXINGTON      CLOUDY    36  28  74 NW8       30.23S WCI  30
MCCOOK         SUNNY     36  26  67 NW12      30.25R WCI  28
OGALLALA       SUNNY     33  23  66 NW8       30.24S WCI  26
$$

NEZ005>010-023>029-035>040-094-060000-
NORTH CENTRAL NEBRASKA

CITY           SKY/WX    TMP DP  RH WIND       PRES   REMARKS
VALENTINE      CLEAR     34  25  69 NW9       30.21S WCI  27
AINSWORTH      CLOUDY    33  27  76 NW14      30.20F WCI  24
BROKEN BOW     CLOUDY    36  26  67 NW17      30.21R WCI  26
O`NEILL        FLURRIES  35  32  90 NW12G20   30.19S WCI  26
ORD            CLOUDY    36  29  75 NW14      30.20R WCI  27
THEDFORD       CLEAR     36  27  69 N23       30.21S WCI  24
$$

NEZ041-046>049-061>064-073>077-083>087-060000-
SOUTH CENTRAL NEBRASKA

CITY           SKY/WX    TMP DP  RH WIND       PRES   REMARKS
GRAND ISLAND   CLOUDY    36  29  75 W6        30.21R WCI  31
AURORA         CLOUDY    35  32  90 W5        30.20S WCI  31
HASTINGS       MOCLDY    36  29  75 W6        30.21R WCI  31
HEBRON         PTCLDY    33  26  75 W8        30.24R WCI  27
HOLDREGE       CLOUDY    35  28  74 W7        30.22S WCI  29
KEARNEY *      MOCLDY    37 -11  12 W7        30.22R WCI  32
YORK           CLOUDY    36  32  87 SW7       30.22R WCI  30
$$

NEZ011>018-030>034-042>045-060000-
NORTHEAST NEBRASKA

CITY           SKY/WX    TMP DP  RH WIND       PRES   REMARKS
NORFOLK        CLOUDY    37  30  75 NW9       30.17R WCI  30
ALBION         CLOUDY    37  29  74 NW8       30.19R WCI  30
BLAIR          CLOUDY    32  29  90 S9        30.22S WCI  24
COLUMBUS *     CLOUDY    36  25  64 SW6       30.21S WCI  31
FREMONT        CLOUDY    31  27  86 S5        30.23R WCI  26
TEKAMAH        CLOUDY    31  27  85 S12       30.23S WCI  22
WAYNE          CLOUDY    32  29  89 CALM      30.19R
$$

NEZ050>053-065>068-078-088>093-060000-
SOUTHEAST NEBRASKA

CITY           SKY/WX    TMP DP  RH WIND       PRES   REMARKS
LINCOLN        CLOUDY    34  29  82 SW8       30.25R WCI  27
OMAHA EPPLEY   CLOUDY    31  28  89 S8        30.25R FOG     WCI  23
BEATRICE       CLOUDY    36  29  77 SW5       30.24S WCI  32
FALLS CITY     CLOUDY    36  28  73 E5        30.27F WCI  32
NEBRASKA CITY  CLOUDY    31  31 100 S8        30.25S FOG     WCI  24
PLATTSMOUTH    CLOUDY    31  28  92 S9        30.24S FOG     WCI  22
$$

NEZ044-045-051>053-067-060000-
OMAHA AREA

CITY           SKY/WX    TMP DP  RH WIND       PRES   REMARKS
OMAHA EPPLEY   CLOUDY    31  28  89 S8        30.25R FOG     WCI  23
BLAIR          CLOUDY    32  29  90 S9        30.22S WCI  24
FREMONT        CLOUDY    31  27  86 S5        30.23R WCI  26
MILLARD        CLOUDY    32  29  88 S5        30.25R WCI  27
OFFUTT AFB     CLOUDY    32  28  86 S5        30.24S FOG     WCI  27
PLATTSMOUTH    CLOUDY    31  28  92 S9        30.24S FOG     WCI  22
WAHOO          CLOUDY    32  30  92 S5        30.23R WCI  27
$$



USA.gov is the U.S. government's official web portal to all federal, state and local government web resources and services.